This demonstration page uses our WeatherBlox Daily Observations layout. Learn more.

Left ArrowRight Arrow

34.74481, -87.66753

Hourly Observations for June 11, 2017

Temp ( °F °C ) Dew Point ( °F °C ) Humidity (%) Winds ( mph kmh ) Pressure ( in mb ) Visibility ( mi km ) Precip ( " mm )
12:53 am 00:53 Clear 68 20 63 17.2 84 84 SE 3 6 30.07 1018 10 16 0.00 0.00
1:53 am 01:53 Clear 67 19.4 63 17.2 87 87 SE 5 7 30.06 1018 10 16 0.00 0.00
2:53 am 02:53 Clear 67 19.4 62 16.7 84 84 SE 5 7 30.06 1018 10 16 0.00 0.00
3:53 am 03:53 Clear 66 18.9 60 15.6 81 81 SE 6 9 30.06 1018 10 16 0.00 0.00
4:53 am 04:53 Clear 64 17.8 60 15.6 87 87 SE 3 6 30.06 1018 10 16 0.00 0.00
5:53 am 05:53 Sunny 65 18.3 60 15.6 84 84 ESE 3 6 30.08 1019 10 16 0.00 0.00
6:53 am 06:53 Sunny 70 21.1 62 16.7 76 76 ESE 5 7 30.10 1019 10 16 0.00 0.00
7:53 am 07:53 Mostly Sunny 75 23.9 63 17.2 66 66 SSE 5 7 30.11 1020 10 16 0.00 0.00
8:53 am 08:53 Mostly Cloudy 81 27.2 61 16.1 51 51 SSE 9 15 30.13 1020 10 16 0.00 0.00
9:53 am 09:53 Mostly Sunny 84 28.9 64 17.8 51 51 SE 7 11 30.13 1020 10 16 0.00 0.00
10:53 am 10:53 Sunny 87 30.6 65 18.3 48 48 S 9 15 30.13 1020 10 16 0.00 0.00
11:53 am 11:53 Partly Cloudy 88 31.1 65 18.3 46 46 SSW 10 17 30.12 1020 10 16 0.00 0.00
12:53 pm 12:53 Mostly Cloudy 87 30.6 67 19.4 51 51 SSE 8 13 30.11 1020 10 16 0.00 0.00
1:53 pm 13:53 Mostly Sunny 87 30.6 66 18.9 50 50 S 9 15 30.09 1019 10 16 0.00 0.00
2:53 pm 14:53 Partly Cloudy 91 32.8 65 18.3 42 42 SW 8 13 30.09 1019 10 16 0.00 0.00
3:53 pm 15:53 Sunny 90 32.2 65 18.3 44 44 SSW 7 11 30.06 1018 10 16 0.00 0.00
4:53 pm 16:53 Sunny 88 31.1 66 18.9 48 48 S 9 15 30.06 1018 10 16 0.00 0.00
5:53 pm 17:53 Mostly Sunny 87 30.6 65 18.3 48 48 S 8 13 30.04 1017 10 16 0.00 0.00
6:53 pm 18:53 Sunny 88 31.1 65 18.3 46 46 SSW 10 17 30.05 1018 10 16 0.00 0.00
7:53 pm 19:53 Sunny 84 28.9 66 18.9 55 55 S 3 6 30.05 1018 10 16 0.00 0.00
8:53 pm 20:53 Clear 78 25.6 67 19.4 69 69 SSE 5 7 30.06 1018 10 16 0.00 0.00
9:53 pm 21:53 Clear 77 25 67 19.4 71 71 Calm 30.07 1018 10 16 0.00 0.00
10:53 pm 22:53 Clear 75 23.9 67 19.4 76 76 SE 5 7 30.08 1019 10 16 0.00 0.00
11:53 pm 23:53 Mostly Clear 73 22.8 67 19.4 81 81 SE 5 7 30.08 1019 10 16 0.00 0.00

Powered by AerisWeather